Location: Brachbach
(49.1847°N, 9.7240°E)
Time: 08:00:38
(UTC+00:00)

FO-29 - Pass Details

Date: 16 March 2026
Orbit: 801 x 1320 km, 98.5° (Epoch: 17 April)

Event Time Altitude Azimuth Distance (km) Brightness Sun altitude
Rises 18:21:30 0° 22° (NNE) 4,135 12.6 -9.6°
Reaches altitude 10° 18:24:46 10° 36° (NE) 3,231 12.0 -10.1°
Maximum altitude 18:30:40 24° 88° (E) 2,404 11.0 -11.1°
Drops below altitude 10° 18:36:43 10° 139° (SE) 3,341 11.8 -12.0°
Sets 18:40:08 0° 152° (SSE) 4,307 12.5 -12.6°
